Kirkville, IA

3:36 AM CST on February 06, 2016 (GMT -0600)
Ottumwa Industrial

Weather History for KOTM - March, 2014

Change the Weather History Date:

Sunday, March 16, 2014

  Actual Average Record
Temperature  
Mean Temperature 26 °F 39 °F  
Max Temperature 32 °F 49 °F 88 °F (1927)
Min Temperature 19 °F 29 °F 1 °F (1951)
Degree Days  
Heating Degree Days 39 26  
Month to date heating degree days 572 469  
Since 1 July heating degree days 6084 5354  
Cooling Degree Days 0 0  
Month to date cooling degree days 0 0  
Year to date cooling degree days 0 0  
Moisture  
Dew Point 22 °F    
Average Humidity 73    
Maximum Humidity 92    
Minimum Humidity 53    
Precipitation  
Precipitation 0.03 in 0.08 in 1.98 in (1946)
Month to date precipitation 0.06 1.09  
Year to date precipitation 1.39 3.27  
Sea Level Pressure  
Sea Level Pressure 30.24 in    
Wind  
Wind Speed 13 mph (NE)    
Max Wind Speed 29 mph    
Max Gust Speed 36 mph    
Visibility 6 miles    
Events Snow    
T = Trace of Precipitation, MM = Missing Value Source: NWS Daily Summary

Daily Weather History Graph

Daily Weather History Graph

Search for Another Location

Airport or City:

Trip Planner

Search our weather history database for the weather conditions in past years. The results will help you decide how hot, cold, wet, or windy it might be!

Date:

Astronomy

Mar. 16, 2014 Rise Set
Actual Time 7:19 AM CDT 7:17 PM CDT
Civil Twilight 6:52 AM CDT 7:45 PM CDT
Nautical Twilight 6:20 AM CDT 8:17 PM CDT
Astronomical Twilight 5:47 AM CDT 8:49 PM CDT
Moon 7:36 PM CDT (3/16) 7:03 AM CDT (3/16)
Length of Visible Light 12h 52m
Length of Day
11h 57m
Full, 100% of the Moon is Illuminated
Mar 16
Full
Mar 16
Full
Mar 23
Last Quarter
Mar 30
New
Apr 7
First Quarter

Hourly Weather History & Observations

Time (CDT) Temp. Windchill Dew Point Humidity Pressure Visibility Wind Dir Wind Speed Gust Speed Precip Events Conditions
12:28 AM 32.0 °F 20.1 °F 28.0 °F 85% 30.17 in 10.0 mi NE 19.6 mph 26.5 mph N/A   Overcast
12:53 AM 32.0 °F 19.8 °F 28.0 °F 85% 30.21 in 10.0 mi NE 20.7 mph 26.5 mph N/A   Overcast
1:22 AM 30.9 °F 19.4 °F 28.0 °F 89% 30.20 in 2.0 mi NE 17.3 mph - 0.00 in Snow Light Snow
1:33 AM 30.9 °F 20.2 °F 28.0 °F 89% 30.20 in 1.5 mi NE 15.0 mph - 0.00 in Snow Light Snow
1:43 AM 30.9 °F 20.2 °F 28.0 °F 89% 30.20 in 1.2 mi NE 15.0 mph - 0.00 in Snow Light Snow
1:53 AM 30.9 °F 20.2 °F 28.0 °F 89% 30.22 in 1.0 mi NE 15.0 mph 24.2 mph 0.00 in Snow Light Snow
2:26 AM 30.0 °F 18.7 °F 28.0 °F 92% 30.22 in 2.0 mi NE 16.1 mph - 0.01 in Snow Light Snow
2:34 AM 30.0 °F 19.5 °F 28.0 °F 92% 30.22 in 1.8 mi NE 13.8 mph - 0.01 in Snow Light Snow
2:41 AM 30.0 °F 20.5 °F 28.0 °F 92% 30.22 in 1.5 mi NE 11.5 mph - 0.01 in Snow Light Snow
2:53 AM 30.0 °F 20.5 °F 28.0 °F 92% 30.24 in 1.2 mi NE 11.5 mph - 0.01 in Snow Light Snow
3:00 AM 30.0 °F 20.0 °F 28.0 °F 92% 30.22 in 1.0 mi NNE 12.7 mph - 0.00 in Snow Light Snow
3:09 AM 30.0 °F 19.1 °F 27.0 °F 88% 30.22 in 1.0 mi NE 15.0 mph - 0.00 in Snow Light Snow
3:16 AM 30.0 °F 18.7 °F 27.0 °F 88% 30.22 in 1.0 mi NE 16.1 mph - 0.00 in Snow Light Snow
3:25 AM 30.0 °F 19.1 °F 27.0 °F 88% 30.21 in 1.0 mi NE 15.0 mph - 0.01 in Snow Light Snow
3:33 AM 30.0 °F 21.1 °F 27.0 °F 88% 30.21 in 0.8 mi NE 10.4 mph - 0.01 in Snow Light Snow
3:41 AM 30.0 °F 20.5 °F 27.0 °F 88% 30.21 in 1.0 mi NNE 11.5 mph - 0.01 in Snow Light Snow
3:51 AM 30.2 °F 21.3 °F 28.4 °F 93% 30.20 in 1.5 mi NNE 10.4 mph - 0.01 in Snow Light Snow
3:53 AM 30.0 °F 20.5 °F 28.0 °F 92% 30.22 in 1.5 mi NNE 11.5 mph - 0.01 in Snow Light Snow
4:11 AM 28.9 °F 19.8 °F 27.0 °F 92% 30.21 in 1.8 mi NNE 10.4 mph - 0.00 in Snow Light Snow
4:29 AM 28.9 °F 19.2 °F 27.0 °F 92% 30.21 in 2.0 mi NNE 11.5 mph - 0.00 in Snow Light Snow
4:38 AM 28.9 °F 18.6 °F 27.0 °F 92% 30.21 in 3.0 mi NNE 12.7 mph - 0.00 in Snow Light Snow
4:53 AM 28.9 °F 17.7 °F 26.1 °F 89% 30.23 in 5.0 mi NNE 15.0 mph - 0.00 in Snow Light Snow
5:53 AM 28.9 °F 17.7 °F 24.1 °F 82% 30.24 in 10.0 mi NNE 15.0 mph - 0.01 in   Overcast
6:38 AM 28.9 °F 15.8 °F 23.0 °F 78% 30.22 in 10.0 mi ENE 20.7 mph 29.9 mph N/A   Overcast
6:53 AM 28.0 °F 15.3 °F 23.0 °F 81% 30.25 in 9.0 mi NE 18.4 mph 28.8 mph N/A   Overcast
7:15 AM 27.0 °F 12.5 °F 21.0 °F 78% 30.24 in 8.0 mi ENE 23.0 mph 31.1 mph 0.00 in   Overcast
7:53 AM 26.1 °F 12.3 °F 19.0 °F 75% 30.29 in 10.0 mi ENE 19.6 mph 29.9 mph 0.00 in   Overcast
8:53 AM 25.0 °F 11.3 °F 18.0 °F 75% 30.32 in 10.0 mi ENE 18.4 mph 28.8 mph N/A   Overcast
9:53 AM 24.1 °F 10.6 °F 16.0 °F 71% 30.33 in 10.0 mi NE 17.3 mph 26.5 mph N/A   Overcast
10:15 AM 25.0 °F 11.7 °F 16.0 °F 69% 30.31 in 10.0 mi ENE 17.3 mph - N/A   Scattered Clouds
10:53 AM 24.1 °F 9.8 °F 15.1 °F 69% 30.36 in 10.0 mi NE 19.6 mph - N/A   Clear
11:53 AM 26.1 °F 15.6 °F 18.0 °F 71% 30.38 in 10.0 mi ENE 11.5 mph - N/A   Scattered Clouds
12:04 PM 27.0 °F 16.1 °F 18.0 °F 69% 30.34 in 10.0 mi NE 12.7 mph - N/A   Mostly Cloudy
12:33 PM 27.0 °F 14.7 °F 16.0 °F 63% 30.33 in 10.0 mi ENE 16.1 mph - N/A   Partly Cloudy
12:53 PM 28.0 °F 16.1 °F 15.1 °F 58% 30.36 in 10.0 mi ENE 16.1 mph - N/A   Partly Cloudy
1:53 PM 28.9 °F 18.2 °F 15.1 °F 56% 30.32 in 10.0 mi NE 13.8 mph - N/A   Clear
2:53 PM 30.0 °F 18.7 °F 16.0 °F 56% 30.29 in 10.0 mi East 16.1 mph - N/A   Partly Cloudy
3:53 PM 30.9 °F 20.2 °F 17.1 °F 57% 30.24 in 10.0 mi ENE 15.0 mph - N/A   Clear
4:53 PM 30.9 °F 22.2 °F 16.0 °F 54% 30.24 in 10.0 mi NE 10.4 mph - N/A   Partly Cloudy
5:53 PM 30.0 °F 19.5 °F 15.1 °F 54% 30.23 in 10.0 mi NE 13.8 mph - N/A   Clear
6:53 PM 28.0 °F 18.6 °F 15.1 °F 58% 30.22 in 10.0 mi ENE 10.4 mph - N/A   Clear
7:53 PM 25.0 °F 18.1 °F 16.0 °F 69% 30.23 in 10.0 mi NE 5.8 mph - N/A   Clear
8:53 PM 24.1 °F 17.0 °F 15.1 °F 69% 30.22 in 10.0 mi NE 5.8 mph - N/A   Clear
9:53 PM 23.0 °F 17.0 °F 15.1 °F 72% 30.20 in 10.0 mi ENE 4.6 mph - N/A   Clear
10:53 PM 21.9 °F 14.5 °F 15.1 °F 75% 30.19 in 10.0 mi East 5.8 mph - N/A   Clear
11:53 PM 21.9 °F 13.4 °F 15.1 °F 75% 30.17 in 10.0 mi East 6.9 mph - N/A   Clear